[[{"header":{"parameterUnit":"m.s-1","parameterCategory":1,"la1":30.2991,"la2":30.254,"lo1":-89.0895,"lo2":-89.0444,"dy":0.0017,"dx":0.0017,"nx":28,"ny":28,"refTime":"2025-12-05T03:00:00:Z","depth":0,"parameterNumber":2,"parameterNumberName":"U-component_of_WINDS"},"data":[0,0,0,0,0,0,0,0,0,0,0,0,0,0,0,0,0,0,0,0,0,0,0,0,0,0,0,0,0,0,0,0,0,0,0,0,0,0,0,0,0,0,0,0,0,0,0,0,0,0,0,0,0,0,0,0,0,0,-3.9526,-3.9526,0,-3.955,-3.955,-3.955,-3.9447,-3.9444,-3.9441,-3.9438,-3.9462,-3.9465,-3.9468,0,0,0,0,0,0,0,0,0,0,0,0,0,-3.939,-3.9393,-3.9526,-3.9526,-3.9526,-3.955,-3.955,-3.955,-3.9448,-3.9444,-3.944,-3.9437,-3.9461,-3.9465,-3.9469,0,0,0,0,0,0,0,0,0,0,0,0,0,-3.9435,-3.9394,-3.9526,-3.9478,-3.9474,-3.955,-3.955,-3.955,-3.9449,-3.9444,-3.9439,-3.9435,-3.9459,-3.9464,-3.9469,-3.9592,0,0,-3.9485,-3.9487,0,0,0,0,0,0,0,0,-3.9433,-3.944,-3.9485,-3.9481,-3.9477,-3.9491,-3.9511,-3.9564,-3.945,-3.9458,-3.9438,-3.9433,-3.9475,-3.9479,-3.9493,-3.9593,-3.9594,-3.9486,-3.9489,-3.9491,-3.9492,0,0,0,0,0,0,0,-3.943,-3.9438,-3.9535,-3.9485,-3.9481,-3.9455,-3.9456,-3.952,-3.9492,-3.9457,-3.945,-3.9454,-3.9472,-3.9488,-3.9493,-3.9594,-3.9485,-3.949,-3.9493,-3.9495,-3.9795,-3.98,0,0,0,0,0,0,-3.9433,-3.9436,-3.9534,-3.9536,-3.9443,-3.9461,-3.9463,-3.9491,-3.9491,-3.9486,-3.9458,-3.9449,-3.9482,-3.9487,-3.9493,-3.9636,-3.9491,-3.9496,-3.9499,-3.979,-3.9796,-3.9802,0,0,0,0,0,0,-3.943,-3.9443,-3.9533,-3.9484,-3.9494,-3.9468,-3.9501,-3.9494,-3.951,-3.9491,-3.9485,-3.948,-3.9478,-3.9486,-3.9568,-3.9635,-3.9498,-3.9503,-3.9785,-3.9792,-3.9799,-3.9922,0,0,0,0,0,0,-3.9427,-3.9442,-3.9489,-3.9486,-3.9497,-3.9608,-3.9505,-3.9498,-3.9519,-3.9508,-3.951,-3.9506,-3.9475,-3.9561,-3.9573,-3.964,-3.9507,-3.9778,-3.9788,-3.9797,-3.9912,-3.9933,-3.9951,0,0,0,0,0,-3.9422,-3.9522,-3.9492,-3.9504,-3.9554,-3.9613,-3.9619,-3.9581,-3.9525,-3.9571,-3.9559,-3.9506,-3.9626,-3.957,-3.9583,-3.9652,-3.9774,-3.9785,-3.9796,-3.9903,-3.9929,-3.995,0,0,0,0,0,0,-3.9533,-3.9521,-3.9487,-3.9589,-3.9603,-3.9595,-3.9652,-3.961,-3.9639,-3.9627,-3.9579,-3.9581,-3.9671,-3.967,-3.9608,-3.977,-3.969,-3.9704,-3.9768,-3.9792,-3.9811,-3.9808,-3.9511,0,0,0,0,0,-3.9569,-3.9618,-3.9605,-3.9696,-3.9705,-3.9678,-3.9702,-3.9672,-3.9684,-3.9689,-3.9683,-3.9696,-3.9737,-3.9764,-3.9801,-3.9912,-3.991,-3.9966,-3.9985,-4.0001,-4.0014,-4.0072,-4.0096,-3.9838,-3.9837,-3.9837,0,0,-3.9644,-3.9644,-3.9678,-3.9718,-3.9725,-3.9776,-3.9683,-3.9741,-3.9778,-3.9697,-3.9774,-3.9771,-3.9782,-3.988,-3.9922,-3.9881,-4.0085,-4.0015,-4.0028,-4.0032,-4.0085,-4.011,-4.0132,-3.9845,-3.9844,-3.9842,0,0,-3.9807,-3.9813,-3.9889,-3.9898,-3.991,-3.9892,-3.991,-3.991,-3.9904,-3.9981,-3.9921,-3.9965,-4.0036,-4.0046,-4.0061,-4.023,-4.0182,-4.0243,-4.0343,-4.0401,-4.0421,-4.0439,-4.0498,-4.0519,-4.0256,-4.0256,-4.0256,0,-3.9899,-3.9973,-3.9933,-3.9995,-4.0015,-3.9945,-4.0022,-4.0033,-4.0056,-4.0071,-4.0025,-4.0113,-4.0116,-4.0215,-4.0256,-4.0271,-4.029,-4.0242,-4.0421,-4.0439,-4.0455,-4.051,-4.0533,-4.0263,-4.0262,-4.0262,-4.0261,0,-4.0085,-4.0138,-4.0198,-4.0223,-4.0249,-4.0319,-4.0288,-4.032,-4.0289,-4.0275,-4.0354,-4.0356,-4.0391,-4.0412,-4.0382,-4.0507,-4.0481,-4.043,-4.0347,-4.0487,-4.0539,-4.056,-4.0274,-4.0271,-4.0269,-4.0267,0,0,-4.0316,-4.0319,-4.0342,-4.0352,-4.0361,-4.04,-4.0467,-4.0502,-4.0529,-4.0548,-4.0602,-4.0664,-4.0617,-4.0634,-4.0604,-4.0655,-4.0787,-4.0597,-4.0596,-4.0631,-4.0923,-4.0961,-4.0986,-4.0756,-4.076,-4.0763,-4.0922,0,-4.0475,-4.0588,-4.0554,-4.0667,-4.0715,-4.0651,-4.0708,-4.072,-4.0709,-4.0748,-4.0736,-4.078,-4.0715,-4.0725,-4.0772,-4.0761,-4.0845,-4.0749,-4.0804,-4.0807,-4.0801,-4.1013,-4.1053,-4.1202,-4.0942,-4.0945,-4.0948,0,-4.0674,-4.0702,-4.082,-4.0821,-4.084,-4.0892,-4.0921,-4.096,-4.0972,-4.096,-4.098,-4.094,-4.1005,-4.0925,-4.1012,-4.0948,-4.0969,-4.0967,-4.0972,-4.0974,-4.0884,-4.1019,-4.1249,-4.1271,-4.0979,-4.0977,-4.0974,0,-4.0829,-4.0896,-4.0975,-4.0986,-4.099,-4.1028,-4.1031,-4.1038,-4.1062,-4.1088,-4.1102,-4.1135,-4.1153,-4.118,-4.115,-4.1094,-4.1242,-4.1159,-4.1233,-4.1234,-4.1265,-4.1264,-4.15,-4.1283,-4.1282,-4.1282,-4.1281,0,-4.1009,-4.1083,-4.1045,-4.1093,-4.1175,-4.1136,-4.1217,-4.1213,-4.1221,-4.1267,-4.1214,-4.1258,-4.1217,-4.1258,-4.1235,-4.1311,-4.132,-4.1312,-4.1305,-4.1316,-4.1316,-4.1327,-4.1315,-4.1288,-4.1286,-4.1285,-4.1284,0,-4.1194,-4.1172,-4.1254,-4.1251,-4.1252,-4.1312,-4.1309,-4.1354,-4.134,-4.1399,-4.1411,-4.1389,-4.1435,-4.1408,-4.1455,-4.1439,-4.1537,-4.1517,-4.1533,-4.1527,-4.1602,-4.1595,-4.1852,-4.1883,-4.1648,-4.165,-4.1652,0,-4.1309,-4.1365,-4.1369,-4.1396,-4.1403,-4.1448,-4.1472,-4.1436,-4.1463,-4.1481,-4.1523,-4.1564,-4.1595,-4.167,-4.1658,-4.1694,-4.1672,-4.176,-4.1677,-4.1686,-4.1672,-4.1668,-4.1673,-4.1776,-4.1779,-4.1781,-4.1783,0,-4.1516,-4.1502,-4.1538,-4.1571,-4.1601,-4.1625,-4.1645,-4.167,-4.1635,-4.1667,-4.1713,-4.1737,-4.1785,-4.1826,-4.1856,-4.1859,-4.1815,-4.181,-4.1829,-4.1839,-4.1846,-4.1842,-4.1577,-4.1804,-4.1801,-4.18,-4.1799,-4.1798,-4.1668,-4.1715,-4.1724,-4.1767,-4.1778,-4.1798,-4.1839,-4.1832,-4.1869,-4.1905,-4.1882,-4.1936,-4.1947,-4.1983,-4.1991,-4.2033,-4.1997,-4.2025,-4.2031,-4.2038,-4.2048,-4.1841,-4.2038,-4.2038,-4.2037,-4.2037,-4.2036,0,-4.187,-4.1873,-4.1913,-4.1942,-4.1976,-4.1933,-4.1953,-4.1983,-4.2032,-4.2046,-4.2077,-4.213,-4.217,-4.2162,-4.2198,-4.2233,-4.2213,-4.2243,-4.2239,-4.224,-4.2078,-4.2058,-4.2258,-4.2258,-4.2258,-4.2258,-4.2258,-4.2258,-4.1979,-4.2055,-4.2043,-4.2124,-4.2127,-4.2179,-4.2194,-4.2212,-4.2223,-4.2284,-4.2317,-4.2312,-4.2317,-4.2353,-4.2388,-4.2384,-4.2399,-4.2436,-4.2425,-4.2274,-4.2252,-4.2231,-4.2211,-4.244,-4.244,-4.2583,-4.2585,-4.2586]},{"header":{"parameterUnit":"m.s-1","parameterCategory":1,"la1":30.2991,"la2":30.254,"lo1":-89.0895,"lo2":-89.0444,"dy":0.0017,"dx":0.0017,"nx":28,"ny":28,"refTime":"2025-12-05T03:00:00:Z","depth":0,"parameterNumber":3,"parameterNumberName":"V-component_of_WINDS"},"data":[0,0,0,0,0,0,0,0,0,0,0,0,0,0,0,0,0,0,0,0,0,0,0,0,0,0,0,0,0,0,0,0,0,0,0,0,0,0,0,0,0,0,0,0,0,0,0,0,0,0,0,0,0,0,0,0,0,0,0.4604,0.4603,0,0.4545,0.4544,0.4544,0.4499,0.4498,0.4498,0.4498,0.4434,0.4433,0.4431,0,0,0,0,0,0,0,0,0,0,0,0,0,0.4674,0.4672,0.4604,0.4603,0.4602,0.4545,0.4544,0.4544,0.4499,0.4498,0.4498,0.4498,0.4434,0.4433,0.4431,0,0,0,0,0,0,0,0,0,0,0,0,0,0.4632,0.4672,0.4604,0.4573,0.457,0.4545,0.4544,0.4543,0.4499,0.4498,0.4498,0.4497,0.4435,0.4433,0.4431,0.4431,0,0,0.4425,0.4424,0,0,0,0,0,0,0,0,0.4634,0.4629,0.4578,0.4575,0.4571,0.4529,0.4546,0.4506,0.4499,0.4526,0.4498,0.4497,0.4466,0.4461,0.4451,0.4428,0.4425,0.4425,0.4423,0.4423,0.4422,0,0,0,0,0,0,0,0.4637,0.4632,0.458,0.4578,0.4573,0.4561,0.4555,0.4538,0.45,0.4523,0.452,0.4514,0.4464,0.4453,0.4449,0.4424,0.4425,0.4423,0.4422,0.4421,0.4399,0.44,0,0,0,0,0,0,0.4645,0.4634,0.4582,0.4579,0.4602,0.4561,0.4553,0.4543,0.45,0.4493,0.4515,0.4512,0.4457,0.4452,0.4447,0.4445,0.4423,0.4421,0.442,0.4399,0.4399,0.44,0,0,0,0,0,0,0.4647,0.4641,0.4585,0.4606,0.4597,0.456,0.4549,0.4542,0.4532,0.4493,0.4486,0.4511,0.4456,0.445,0.4436,0.4442,0.442,0.4418,0.4398,0.4399,0.44,0.4441,0,0,0,0,0,0,0.4649,0.4642,0.4642,0.4606,0.4597,0.4575,0.4549,0.4541,0.4529,0.4525,0.4488,0.4481,0.4455,0.4439,0.4434,0.4439,0.4417,0.4397,0.4398,0.4399,0.4439,0.4444,0.4447,0,0,0,0,0,0.4652,0.4655,0.4643,0.4636,0.4596,0.4576,0.457,0.4541,0.453,0.453,0.4505,0.4483,0.4443,0.4438,0.4432,0.4437,0.4397,0.4398,0.4399,0.4437,0.4443,0.4447,0,0,0,0,0,0,0.4691,0.465,0.4635,0.4627,0.4606,0.4568,0.4567,0.4548,0.4528,0.4525,0.4489,0.4481,0.4471,0.4452,0.4448,0.4435,0.4417,0.4417,0.4448,0.4453,0.4457,0.4461,0.4415,0,0,0,0,0,0.47,0.4688,0.4651,0.4647,0.4638,0.4605,0.4594,0.4574,0.455,0.454,0.4514,0.449,0.4473,0.4461,0.4443,0.4436,0.4428,0.4437,0.4441,0.4444,0.4445,0.4441,0.4445,0.4405,0.4405,0.4405,0,0,0.4715,0.4691,0.4686,0.4655,0.4636,0.4624,0.4597,0.4585,0.4575,0.4538,0.4524,0.4504,0.4475,0.4465,0.446,0.4449,0.4454,0.4446,0.4449,0.4448,0.4443,0.4447,0.445,0.4406,0.4405,0.4405,0,0,0.4739,0.4719,0.4714,0.4696,0.4669,0.4647,0.4646,0.4612,0.4598,0.4584,0.4556,0.4543,0.4513,0.4494,0.448,0.4498,0.4477,0.4493,0.4514,0.451,0.4514,0.4516,0.4523,0.4526,0.4493,0.4493,0.4493,0,0.4762,0.4743,0.4714,0.4704,0.4692,0.4659,0.4654,0.4637,0.4604,0.4596,0.4586,0.4548,0.4526,0.4512,0.4517,0.4506,0.4504,0.4497,0.4516,0.4518,0.452,0.4526,0.4529,0.4496,0.4495,0.4495,0.4495,0,0.4773,0.4761,0.476,0.4732,0.4719,0.4711,0.468,0.4671,0.4652,0.4631,0.4617,0.459,0.4566,0.4561,0.4542,0.4545,0.4539,0.4523,0.4504,0.4527,0.4532,0.4534,0.4499,0.4498,0.4497,0.4497,0,0,0.4819,0.4775,0.4776,0.4763,0.473,0.472,0.4711,0.4689,0.4682,0.466,0.4652,0.4628,0.4613,0.4597,0.4576,0.4573,0.459,0.4556,0.4555,0.4564,0.4592,0.4605,0.4608,0.4576,0.4576,0.4576,0.4595,0,0.4837,0.4821,0.4795,0.4787,0.4776,0.4745,0.4737,0.4716,0.4697,0.4684,0.4661,0.4645,0.4626,0.4617,0.4613,0.4589,0.4595,0.4587,0.4567,0.4567,0.4576,0.4611,0.4624,0.4643,0.4596,0.4597,0.4597,0,0.4857,0.4839,0.4831,0.48,0.4794,0.4788,0.4767,0.4754,0.473,0.4716,0.47,0.4677,0.4665,0.4648,0.4632,0.4627,0.4618,0.4605,0.4605,0.4602,0.4583,0.4609,0.4648,0.4651,0.46,0.4599,0.4599,0,0.4892,0.4866,0.4858,0.4847,0.4812,0.4808,0.4793,0.4768,0.4757,0.4738,0.473,0.4709,0.4698,0.4682,0.4654,0.4644,0.4641,0.4621,0.4628,0.4629,0.4629,0.4629,0.4667,0.4622,0.4622,0.4622,0.4622,0,0.4916,0.4912,0.4873,0.4868,0.4863,0.4833,0.4828,0.481,0.4788,0.4779,0.475,0.4742,0.4705,0.4692,0.467,0.466,0.4655,0.4643,0.4637,0.4646,0.4647,0.4639,0.4637,0.4623,0.4623,0.4623,0.4623,0,0.4954,0.4928,0.4918,0.4885,0.4877,0.4875,0.4847,0.484,0.482,0.4808,0.4804,0.4771,0.4754,0.4725,0.4699,0.4684,0.4679,0.4669,0.4688,0.4684,0.4694,0.4694,0.4728,0.4731,0.4684,0.4684,0.4685,0,0.4971,0.4968,0.4936,0.4928,0.4915,0.4902,0.4892,0.4862,0.4852,0.4825,0.4822,0.4803,0.4787,0.4761,0.4735,0.4715,0.4704,0.4718,0.4701,0.471,0.4705,0.4706,0.4706,0.4721,0.4722,0.4723,0.4723,0,0.5004,0.4992,0.4978,0.4961,0.4949,0.4933,0.4915,0.491,0.4877,0.4866,0.485,0.4838,0.4813,0.4795,0.4772,0.4754,0.4733,0.4729,0.4729,0.4738,0.475,0.4744,0.4699,0.4728,0.4727,0.4727,0.4727,0.4727,0.5033,0.5029,0.5007,0.4992,0.4977,0.4961,0.4954,0.4934,0.492,0.4898,0.4881,0.4866,0.4842,0.481,0.4794,0.4781,0.4771,0.4772,0.4773,0.4774,0.4777,0.4752,0.4777,0.4777,0.4777,0.4776,0.4776,0,0.5065,0.505,0.5037,0.5015,0.5004,0.4986,0.4966,0.4958,0.4946,0.4926,0.4911,0.4892,0.4875,0.4848,0.4828,0.4823,0.4813,0.4819,0.4819,0.4816,0.4787,0.4789,0.4828,0.4828,0.4828,0.4828,0.4828,0.4828,0.5081,0.5074,0.5059,0.5044,0.5028,0.5015,0.5005,0.499,0.4975,0.4956,0.4942,0.4925,0.4902,0.4881,0.4864,0.4856,0.4851,0.486,0.4849,0.4823,0.4818,0.4813,0.4815,0.4859,0.4859,0.4879,0.488,0.488]}]]